087  
NZUS93 KARX 242310  
HRRWXR  
 
CURRENT HOURLY OBSERVATIONS ACROSS  
MUCH OF THE UPPER MISSISSIPPI VALLEY  
NATIONAL WEATHER SERVICE LA CROSSE WI  
600 PM CDT FRI MAR 24 2017  
 
   
..SOUTHEAST MINNESOTA
 
 
 
CITY SKY/WX TMP DP RH WIND PRES REMARKS  
ROCHESTER CLOUDY 39 38 96 NE14 30.05R WCI 31  
ROCHESTER/MAYO CLOUDY 40 39 97 N9G17 30.06R WCI 34  
WINONA CLOUDY 41 37 87 NE7 30.07R  
AUSTIN CLOUDY 39 37 93 N14 30.03R WCI 31  
ALBERT LEA CLOUDY 39 39 100 NE14G20 30.04R FOG WCI 31  
DODGE CENTER CLOUDY 39 37 93 NE13 30.06R FOG WCI 32  
PRESTON CLOUDY 38 37 92 NE14 30.03R WCI 30  
OWATONNA CLOUDY 43 37 81 N9 30.07R  
FARIBAULT CLOUDY 45 37 76 N10 30.08  

 
   
..ELSEWHERE IN MINNESOTA
 
 
 
CITY SKY/WX TMP DP RH WIND PRES REMARKS  
MINNEAPOLIS CLOUDY 43 34 70 N12 30.11R  
INTNL FALLS CLOUDY 38 25 59 NE5 30.19R WCI 34  
DULUTH CLOUDY 36 32 85 E5 30.16R WCI 32  
RED WING CLOUDY 45 36 70 NE7 30.08R  
REDWOOD FALLS CLOUDY 40 34 79 NE10 30.10R WCI 33  
MANKATO CLOUDY 43 37 79 N16 30.06S  
WORTHINGTON CLOUDY 39 37 92 N21 30.06R FOG WCI 29  
FAIRMONT CLOUDY 43 39 86 N12G21 30.05F  

 
   
..SOUTHWEST WISCONSIN
 
 
 
CITY SKY/WX TMP DP RH WIND PRES REMARKS  
LA CROSSE CLOUDY 43 39 86 NE13 30.05R FOG  
PRAIRIE DU CHI DRIZZLE 46 39 79 N6 30.00R  
BOSCOBEL CLOUDY 47 39 74 VRB6 30.00R  
LONE ROCK CLOUDY 45 39 79 NE8 30.00R HAZE  
PLATTEVILLE CLOUDY 53 48 83 N9 29.98R  
FORT MC COY DRIZZLE 40 38 93 NE9 30.07R WCI 33  
CAMP DOUGLAS LGT RAIN 39 37 93 NE8 30.05R WCI 34  
MAUSTON-NEW LI LGT RAIN 38 37 94 NE5 30.05R WCI 35  
VIROQUA CLOUDY 39 38 99 NE10 30.03R WCI 32  
WIS DELLS CLOUDY 38 37 93 NE10G16 30.03R FOG WCI 31  

 
   
..ELSEWHERE IN WISCONSIN
 
 
 
CITY SKY/WX TMP DP RH WIND PRES REMARKS  
MILWAUKEE CLOUDY 39 35 86 N22G31 30.02R FOG WCI 29  
MADISON LGT RAIN 43 38 82 N17 29.98F  
GREEN BAY LGT RAIN 36 36 100 NE15 30.09S WCI 27  
EAU CLAIRE CLOUDY 41 36 82 NE10G21 30.07S  
BLACK RVR FLS CLOUDY 40 40 100 NE7 30.06R  
MEDFORD CLOUDY 36 33 90 N10 30.08R FOG WCI 28  
WAUSAU LGT RAIN 38 36 92 N5 30.08R WCI 34  
WIS RAPIDS CLOUDY 38 37 97 NE7 30.09R WCI 33  
MARSHFIELD CLOUDY 38 38 100 NE6 30.07R WCI 33  
RICE LAKE CLOUDY 39 35 84 N10 30.13S WCI 32  

 
   
..NORTHEAST IOWA
 
 
 
CITY SKY/WX TMP DP RH WIND PRES REMARKS  
WATERLOO CLOUDY 44 40 85 N12 29.98R  
DUBUQUE LGT RAIN 53 51 93 N9 29.95S FOG  
DECORAH CLOUDY 41 39 93 N10G17 30.01R  
MASON CITY CLOUDY 41 38 89 N15 30.02R  
CHARLES CITY LGT RAIN 41 41 100 NE15 30.01S  
OELWEIN CLOUDY 45 43 93 NE14 29.97F  

 
   
..ELSEWHERE IN IOWA
 
 
 
CITY SKY/WX TMP DP RH WIND PRES REMARKS  
DES MOINES LGT RAIN 49 46 90 NE12 29.95R FOG  
IOWA CITY CLOUDY 56 54 93 W6 29.95R FOG  
FORT DODGE CLOUDY 41 37 87 N12G18 30.01R  
MARSHALLTOWN LGT RAIN 46 43 89 NE15 29.96R FOG  
CEDAR RAPIDS CLOUDY 53 53 100 N3 29.91F FOG  

 
   
..NORTHERN ILLINOIS
 
 
 
CITY SKY/WX TMP DP RH WIND PRES REMARKS  
CHICAGO-OHARE CLOUDY 51 40 65 NE21G26 29.95R  
CHICAGO-MIDWAY CLOUDY 76 45 33 W14G24 29.92R  
MOLINE CLOUDY 64 49 57 W13 29.91F  
ROCKFORD CLOUDY 65 50 58 N15 29.96R  
PEORIA CLOUDY 74 46 36 W5 29.92S  

 
 
NOTE: "FAIR" INDICATES FEW OR NO CLOUDS BELOW 12,000 FEET WITH NO  
SIGNIFICANT WEATHER AND/OR OBSTRUCTIONS TO VISIBILITY. WIND  
SPEEDS ARE IN MILES-PER-HOUR.  
 
 
CLICK HERE TO GO TO PREVIOUS BULLETINS.

The Nexlab WI Page
The Nexlab IA Page
The Nexlab MN Page Main Text Page